Location: Carrières
(48.9495°N, 2.0407°E)
Time: 06:53:07
(UTC+00:00)

SL-16 R/B - Pass Details

Date: 28 January 2023
Orbit: 842 x 846 km, 71.0° (Epoch: 29 March)

Event Time Altitude Azimuth Distance (km) Brightness Sun altitude
Rises 19:57:00 0° 222° (SW) 3,389 5.7 -31.9°
Reaches altitude 10° 19:59:30 10° 227° (SW) 2,458 5.0 -32.3°
Enters shadow 20:04:24 51° 280° (W) 1,050 2.9 -33.1°
